PrinceSS Juana K — HPFV — position and weather

sailwx.info

Track history (hours):
 
Tides and Currents Weather Stations Pressure Air Temp Water Temp Dewpoint Dewpoint Depression Visibility Wind Speed Wind Dir Waves Ship Positions

PrinceSS Juana K

Last reported at 2014-Oct-21 18:32 UTC. Time now 2014-Oct-24 11:30 UTC.
Position N 36°54' E 007°46'.

Length 145 m; draft 9.4 m.

Type: Cargo ship. MMSI: 352982000.

Date/timePositionNaut miles runAvg speedWind from/ knotsBaromVisibWave heightAir tempDewpointWater temp
2014-Oct-21 18:32N 36°54' E 007°46'0 0.0
2014-Oct-21 17:31N 36°54' E 007°46'0 0.0
2014-Oct-21 15:18N 36°54' E 007°46'0 0.0
2014-Oct-21 14:32N 36°54' E 007°46'0 0.0
2014-Oct-21 13:21N 36°54' E 007°46'0 0.0
2014-Oct-21 12:33N 36°54' E 007°46'0 0.0
2014-Oct-21 11:13N 36°54' E 007°46'0 0.0
2014-Oct-21 10:31N 36°54' E 007°46'0 0.0
2014-Oct-21 09:33N 36°54' E 007°46'0 0.0
2014-Oct-21 08:34N 36°54' E 007°46'0 0.0
2014-Oct-21 07:32N 36°54' E 007°46'0 0.0
2014-Oct-21 06:23N 36°54' E 007°46'0 0.0
2014-Oct-21 05:33N 36°54' E 007°46'0 0.0
2014-Oct-21 04:33N 36°54' E 007°46'0 0.0
2014-Oct-21 03:32N 36°54' E 007°46'0 0.0
2014-Oct-21 02:32N 36°54' E 007°46'0 0.0
2014-Oct-20 23:26N 36°54' E 007°46'0 0.0
2014-Oct-20 12:29N 36°54' E 007°46'0 0.0
2014-Oct-20 05:31N 36°54' E 007°46'0 0.0
2014-Oct-20 04:32N 36°54' E 007°46'0 0.0
2014-Oct-20 00:26N 36°54' E 007°46'0 0.0
2014-Oct-19 23:11N 36°54' E 007°46'0 0.0
2014-Oct-19 21:31N 36°54' E 007°46'0 0.0
2014-Oct-19 20:28N 36°54' E 007°46'0 0.0
2014-Oct-19 19:33N 36°54' E 007°46'0 0.0
2014-Oct-19 18:32N 36°54' E 007°46'0 0.0
2014-Oct-19 17:08N 36°54' E 007°46'0 0.0
2014-Oct-19 15:25N 36°54' E 007°46'0 0.0
2014-Oct-19 14:32N 36°54' E 007°46'0 0.0
2014-Oct-19 13:30N 36°54' E 007°46'0 0.0
2014-Oct-19 12:33N 36°54' E 007°46'0 0.0
2014-Oct-19 11:32N 36°54' E 007°46'0 0.0
2014-Oct-19 10:28N 36°54' E 007°46'0 0.0
2014-Oct-19 09:33N 36°54' E 007°46'0 0.0
2014-Oct-19 07:33N 36°54' E 007°46'0 0.0
2014-Oct-19 06:33N 36°54' E 007°46'0 0.0
2014-Oct-19 05:31N 36°54' E 007°46'0 0.0
2014-Oct-19 03:32N 36°54' E 007°46'0 0.0
2014-Oct-19 02:32N 36°54' E 007°46'0 0.0
2014-Oct-19 01:31N 36°54' E 007°46'0 0.0
2014-Oct-19 00:31N 36°54' E 007°46'0 0.0
2014-Oct-18 23:29N 36°54' E 007°46'0 0.0
2014-Oct-18 22:30N 36°54' E 007°46'0 0.0
2014-Oct-18 21:31N 36°54' E 007°46'0 0.0
2014-Oct-18 20:32N 36°54' E 007°46'0 0.0
2014-Oct-18 19:22N 36°54' E 007°46'0 0.0
2014-Oct-18 16:22N 36°54' E 007°46'0 0.0
2014-Oct-18 15:11N 36°54' E 007°46'0 0.0
2014-Oct-18 14:32N 36°54' E 007°46'0 0.0
2014-Oct-18 13:33N 36°54' E 007°46'0 0.0
2014-Oct-18 11:32N 36°54' E 007°46'0 0.0
2014-Oct-18 08:10N 36°54' E 007°46'0 0.0
2014-Oct-18 07:23N 36°54' E 007°46'0 0.0
2014-Oct-17 23:17N 36°54' E 007°46'0 0.0
2014-Oct-17 22:15N 36°54' E 007°46'0 0.0
2014-Oct-17 21:20N 36°54' E 007°46'0 0.0
2014-Oct-17 20:31N 36°54' E 007°46'0 0.0
2014-Oct-17 19:33N 36°54' E 007°46'0 0.0
2014-Oct-17 18:28N 36°54' E 007°46'0 0.0
2014-Oct-17 17:28N 36°54' E 007°46'0 0.0
2014-Oct-17 15:17N 36°54' E 007°46'0 0.0
2014-Oct-17 06:05N 36°54' E 007°46'  
2014-Oct-14 11:33N 36°54' E 007°46'23 0.7
2014-Oct-13 03:12N 37°04' E 008°13'4 6.7
2014-Oct-13 02:33N 37°06' E 008°18'38 5.8
2014-Oct-12 20:06N 37°20' E 009°02'5 5.5
2014-Oct-12 19:13N 37°22' E 009°07'26 5.5
2014-Oct-12 14:33N 37°31' E 009°37'6 5.8
2014-Oct-12 13:33N 37°33' E 009°44'6 5.7
2014-Oct-12 12:32N 37°35' E 009°51'6 5.8
2014-Oct-12 11:32N 37°38' E 009°58'5 5.5
2014-Oct-12 10:33N 37°39' E 010°04'12 5.6
2014-Oct-12 08:27N 37°38' E 010°19'13 6.0
2014-Oct-12 06:17N 37°35' E 010°35'5 6.3
2014-Oct-12 05:32N 37°34' E 010°41'6 6.2
2014-Oct-12 04:33N 37°32' E 010°48'7 6.4
2014-Oct-12 03:24N 37°30' E 010°57'  
Track history (hours):
 
Tides and Currents Weather Stations Pressure Air Temp Water Temp Dewpoint Dewpoint Depression Visibility Wind Speed Wind Dir Waves Ship Positions

PrinceSS Juana K

Last reported at 2014-Oct-21 18:32 UTC. Time now 2014-Oct-24 11:30 UTC.
Position N 36°54' E 007°46'.

Length 145 m; draft 9.4 m.

Type: Cargo ship. MMSI: 352982000.

Date/timePositionNaut miles runAvg speedWind from/ knotsBaromVisibWave heightAir tempDewpointWater temp
2014-Oct-21 18:32N 36°54' E 007°46'0 0.0
2014-Oct-21 17:31N 36°54' E 007°46'0 0.0
2014-Oct-21 15:18N 36°54' E 007°46'0 0.0
2014-Oct-21 14:32N 36°54' E 007°46'0 0.0
2014-Oct-21 13:21N 36°54' E 007°46'0 0.0
2014-Oct-21 12:33N 36°54' E 007°46'0 0.0
2014-Oct-21 11:13N 36°54' E 007°46'0 0.0
2014-Oct-21 10:31N 36°54' E 007°46'0 0.0
2014-Oct-21 09:33N 36°54' E 007°46'0 0.0
2014-Oct-21 08:34N 36°54' E 007°46'0 0.0
2014-Oct-21 07:32N 36°54' E 007°46'0 0.0
2014-Oct-21 06:23N 36°54' E 007°46'0 0.0
2014-Oct-21 05:33N 36°54' E 007°46'0 0.0
2014-Oct-21 04:33N 36°54' E 007°46'0 0.0
2014-Oct-21 03:32N 36°54' E 007°46'0 0.0
2014-Oct-21 02:32N 36°54' E 007°46'0 0.0
2014-Oct-20 23:26N 36°54' E 007°46'0 0.0
2014-Oct-20 12:29N 36°54' E 007°46'0 0.0
2014-Oct-20 05:31N 36°54' E 007°46'0 0.0
2014-Oct-20 04:32N 36°54' E 007°46'0 0.0
2014-Oct-20 00:26N 36°54' E 007°46'0 0.0
2014-Oct-19 23:11N 36°54' E 007°46'0 0.0
2014-Oct-19 21:31N 36°54' E 007°46'0 0.0
2014-Oct-19 20:28N 36°54' E 007°46'0 0.0
2014-Oct-19 19:33N 36°54' E 007°46'0 0.0
2014-Oct-19 18:32N 36°54' E 007°46'0 0.0
2014-Oct-19 17:08N 36°54' E 007°46'0 0.0
2014-Oct-19 15:25N 36°54' E 007°46'0 0.0
2014-Oct-19 14:32N 36°54' E 007°46'0 0.0
2014-Oct-19 13:30N 36°54' E 007°46'0 0.0
2014-Oct-19 12:33N 36°54' E 007°46'0 0.0
2014-Oct-19 11:32N 36°54' E 007°46'0 0.0
2014-Oct-19 10:28N 36°54' E 007°46'0 0.0
2014-Oct-19 09:33N 36°54' E 007°46'0 0.0
2014-Oct-19 07:33N 36°54' E 007°46'0 0.0
2014-Oct-19 06:33N 36°54' E 007°46'0 0.0
2014-Oct-19 05:31N 36°54' E 007°46'0 0.0
2014-Oct-19 03:32N 36°54' E 007°46'0 0.0
2014-Oct-19 02:32N 36°54' E 007°46'0 0.0
2014-Oct-19 01:31N 36°54' E 007°46'0 0.0
2014-Oct-19 00:31N 36°54' E 007°46'0 0.0
2014-Oct-18 23:29N 36°54' E 007°46'0 0.0
2014-Oct-18 22:30N 36°54' E 007°46'0 0.0
2014-Oct-18 21:31N 36°54' E 007°46'0 0.0
2014-Oct-18 20:32N 36°54' E 007°46'0 0.0
2014-Oct-18 19:22N 36°54' E 007°46'0 0.0
2014-Oct-18 16:22N 36°54' E 007°46'0 0.0
2014-Oct-18 15:11N 36°54' E 007°46'0 0.0
2014-Oct-18 14:32N 36°54' E 007°46'0 0.0
2014-Oct-18 13:33N 36°54' E 007°46'0 0.0
2014-Oct-18 11:32N 36°54' E 007°46'0 0.0
2014-Oct-18 08:10N 36°54' E 007°46'0 0.0
2014-Oct-18 07:23N 36°54' E 007°46'0 0.0
2014-Oct-17 23:17N 36°54' E 007°46'0 0.0
2014-Oct-17 22:15N 36°54' E 007°46'0 0.0
2014-Oct-17 21:20N 36°54' E 007°46'0 0.0
2014-Oct-17 20:31N 36°54' E 007°46'0 0.0
2014-Oct-17 19:33N 36°54' E 007°46'0 0.0
2014-Oct-17 18:28N 36°54' E 007°46'0 0.0
2014-Oct-17 17:28N 36°54' E 007°46'0 0.0
2014-Oct-17 15:17N 36°54' E 007°46'0 0.0
2014-Oct-17 06:05N 36°54' E 007°46'  
2014-Oct-14 11:33N 36°54' E 007°46'23 0.7
2014-Oct-13 03:12N 37°04' E 008°13'4 6.7
2014-Oct-13 02:33N 37°06' E 008°18'38 5.8
2014-Oct-12 20:06N 37°20' E 009°02'5 5.5
2014-Oct-12 19:13N 37°22' E 009°07'26 5.5
2014-Oct-12 14:33N 37°31' E 009°37'6 5.8
2014-Oct-12 13:33N 37°33' E 009°44'6 5.7
2014-Oct-12 12:32N 37°35' E 009°51'6 5.8
2014-Oct-12 11:32N 37°38' E 009°58'5 5.5
2014-Oct-12 10:33N 37°39' E 010°04'12 5.6
2014-Oct-12 08:27N 37°38' E 010°19'13 6.0
2014-Oct-12 06:17N 37°35' E 010°35'5 6.3
2014-Oct-12 05:32N 37°34' E 010°41'6 6.2
2014-Oct-12 04:33N 37°32' E 010°48'7 6.4
2014-Oct-12 03:24N 37°30' E 010°57'  

Dump ship's entire track history